EN

Hourly Weather Aboyne

Today, 15 May, Saturday

Time Temperature Precipitation Wind Pressure Humidity
00:00 +5°C° 0 mm 0 mps 729 mmHg 93%
01:00 +5°C° 0 mm 0 mps 729 mmHg 93%
02:00 +5°C° 0 mm 0 mps 728 mmHg 93%
03:00 +5°C° 0 mm 0 mps 728 mmHg 93%
04:00 +5°C° 0 mm 0 mps 728 mmHg 91%
05:00 +6°C° 0 mm 0 mps 728 mmHg 90%
06:00 +6°C° 0 mm 0 mps 727 mmHg 88%
07:00 +7°C° 0 mm 0 mps 727 mmHg 84%
08:00 +7°C° 0 mm 0 mps 727 mmHg 80%
09:00 +8°C° 0 mm 0 mps 727 mmHg 77%
10:00 +9°C° 0.1 mm 1 mps 726 mmHg 75%
11:00 +10°C° 0.1 mm 1 mps 726 mmHg 74%
12:00 +9°C° 0.1 mm 2 mps 726 mmHg 72%
13:00 +9°C° 0.1 mm 2 mps 726 mmHg 73%
14:00 +9°C° 0.1 mm 2 mps 726 mmHg 73%
15:00 +9°C° 0.1 mm 2 mps 725 mmHg 74%
16:00 +9°C° 0.1 mm 2 mps 725 mmHg 76%
17:00 +9°C° 0.1 mm 2 mps 725 mmHg 77%
18:00 +9°C° 0.1 mm 2 mps 725 mmHg 79%
19:00 +8°C° 0 mm 2 mps 725 mmHg 82%
20:00 +8°C° 0 mm 1 mps 725 mmHg 86%
21:00 +7°C° 0 mm 1 mps 725 mmHg 90%
22:00 +7°C° 0 mm 1 mps 725 mmHg 90%
23:00 +6°C° 0 mm 1 mps 724 mmHg 89%

Tomorrow, 16 May, Sunday

Time Temperature Precipitation Wind Pressure Humidity
00:00 +6°C° 0 mm 1 mps 724 mmHg 89%
01:00 +6°C° 0 mm 1 mps 724 mmHg 89%
02:00 +6°C° 0 mm 1 mps 724 mmHg 89%
03:00 +6°C° 0 mm 1 mps 724 mmHg 88%
04:00 +6°C° 0 mm 1 mps 724 mmHg 87%
05:00 +7°C° 0 mm 1 mps 724 mmHg 86%
06:00 +7°C° 0 mm 1 mps 724 mmHg 85%
07:00 +8°C° 0 mm 1 mps 724 mmHg 81%
08:00 +9°C° 0 mm 1 mps 724 mmHg 76%
09:00 +9°C° 0 mm 2 mps 724 mmHg 72%
10:00 +10°C° 0.1 mm 2 mps 724 mmHg 70%
11:00 +10°C° 0.1 mm 2 mps 724 mmHg 68%
12:00 +11°C° 0.1 mm 3 mps 724 mmHg 65%
13:00 +11°C° 0.2 mm 3 mps 724 mmHg 67%
14:00 +11°C° 0.2 mm 3 mps 724 mmHg 69%
15:00 +11°C° 0.2 mm 3 mps 724 mmHg 70%
16:00 +10°C° 0.1 mm 3 mps 724 mmHg 73%
17:00 +10°C° 0.1 mm 3 mps 724 mmHg 76%
18:00 +9°C° 0.1 mm 3 mps 724 mmHg 79%
19:00 +8°C° 0 mm 2 mps 725 mmHg 84%
20:00 +7°C° 0 mm 2 mps 725 mmHg 89%
21:00 +6°C° 0 mm 1 mps 725 mmHg 94%
22:00 +6°C° 0 mm 1 mps 725 mmHg 95%
23:00 +6°C° 0 mm 1 mps 725 mmHg 95%

Day after tomorrow, 17 May, Monday

Time Temperature Precipitation Wind Pressure Humidity
00:00 +5°C° 0 mm 1 mps 725 mmHg 95%
01:00 +5°C° 0 mm 1 mps 725 mmHg 95%
02:00 +5°C° 0 mm 1 mps 725 mmHg 95%
03:00 +5°C° 0 mm 1 mps 725 mmHg 95%
04:00 +6°C° 0 mm 1 mps 725 mmHg 92%
05:00 +7°C° 0 mm 1 mps 725 mmHg 89%
06:00 +8°C° 0 mm 1 mps 726 mmHg 87%
07:00 +8°C° 0.1 mm 1 mps 726 mmHg 84%
08:00 +9°C° 0.1 mm 1 mps 726 mmHg 80%
09:00 +10°C° 0.1 mm 1 mps 726 mmHg 77%
10:00 +11°C° 0.5 mm 1 mps 726 mmHg 77%
11:00 +11°C° 0.5 mm 1 mps 726 mmHg 77%
12:00 +11°C° 0.5 mm 1 mps 726 mmHg 77%
13:00 +11°C° 0.7 mm 1 mps 726 mmHg 79%
14:00 +10°C° 0.7 mm 2 mps 726 mmHg 80%
15:00 +10°C° 0.7 mm 2 mps 726 mmHg 82%
16:00 +9°C° 1.5 mm 2 mps 726 mmHg 85%
17:00 +9°C° 1.5 mm 2 mps 726 mmHg 88%
18:00 +8°C° 1.5 mm 2 mps 727 mmHg 91%
19:00 +8°C° 0.7 mm 1 mps 727 mmHg 92%
20:00 +8°C° 0.7 mm 1 mps 727 mmHg 93%
21:00 +7°C° 0.7 mm 1 mps 727 mmHg 95%
22:00 +7°C° 0.1 mm 1 mps 727 mmHg 94%
23:00 +7°C° 0.1 mm 1 mps 727 mmHg 94%

18 May, Tuesday

Time Temperature Precipitation Wind Pressure Humidity
00:00 +7°C° 0.1 mm 1 mps 728 mmHg 94%
01:00 +7°C° 0 mm 1 mps 728 mmHg 93%
02:00 +6°C° 0 mm 0 mps 728 mmHg 93%
03:00 +5°C° 0 mm 0 mps 728 mmHg 92%
04:00 +6°C° 0 mm 0 mps 728 mmHg 91%
05:00 +6°C° 0 mm 0 mps 728 mmHg 90%
06:00 +7°C° 0 mm 0 mps 728 mmHg 89%
07:00 +8°C° 0.2 mm 0 mps 729 mmHg 84%
08:00 +10°C° 0.2 mm 1 mps 729 mmHg 79%
09:00 +11°C° 0.2 mm 1 mps 729 mmHg 75%
10:00 +11°C° 0.2 mm 1 mps 729 mmHg 73%
11:00 +10°C° 0.2 mm 2 mps 729 mmHg 72%
12:00 +12°C° 0.2 mm 2 mps 730 mmHg 71%
13:00 +12°C° 0.2 mm 2 mps 730 mmHg 71%
14:00 +12°C° 0.2 mm 2 mps 730 mmHg 71%
15:00 +11°C° 0.2 mm 3 mps 730 mmHg 71%
16:00 +12°C° 0.4 mm 2 mps 730 mmHg 74%
17:00 +10°C° 0.4 mm 2 mps 730 mmHg 78%
18:00 +10°C° 0.4 mm 2 mps 730 mmHg 81%
19:00 +9°C° 0.2 mm 2 mps 731 mmHg 85%
20:00 +9°C° 0.2 mm 1 mps 731 mmHg 89%
21:00 +7°C° 0.2 mm 1 mps 731 mmHg 94%
22:00 +7°C° 0.1 mm 1 mps 731 mmHg 94%
23:00 +7°C° 0.1 mm 1 mps 732 mmHg 95%

19 May, Wednesday

Time Temperature Precipitation Wind Pressure Humidity
00:00 +6°C° 0.1 mm 1 mps 732 mmHg 96%
01:00 +6°C° 0 mm 1 mps 732 mmHg 96%
02:00 +6°C° 0 mm 1 mps 732 mmHg 96%
03:00 +6°C° 0 mm 1 mps 733 mmHg 96%
04:00 +6°C° 0 mm 1 mps 733 mmHg 94%
05:00 +7°C° 0 mm 1 mps 733 mmHg 92%
06:00 +7°C° 0 mm 1 mps 734 mmHg 90%
07:00 +7°C° 0.1 mm 2 mps 734 mmHg 86%
08:00 +8°C° 0.1 mm 2 mps 735 mmHg 81%
09:00 +9°C° 0.1 mm 2 mps 735 mmHg 77%
10:00 +8°C° 0.3 mm 2 mps 735 mmHg 82%
11:00 +7°C° 0.3 mm 3 mps 736 mmHg 87%
12:00 +5°C° 0.3 mm 3 mps 736 mmHg 92%
13:00 +6°C° 0.4 mm 2 mps 737 mmHg 91%
14:00 +6°C° 0.4 mm 2 mps 737 mmHg 91%
15:00 +5°C° 0.4 mm 2 mps 737 mmHg 90%
16:00 +5°C° 0.1 mm 2 mps 737 mmHg 89%
17:00 +5°C° 0.1 mm 2 mps 738 mmHg 88%
18:00 +6°C° 0.1 mm 1 mps 738 mmHg 87%
19:00 +6°C° 0.1 mm 1 mps 738 mmHg 88%
20:00 +5°C° 0.1 mm 1 mps 738 mmHg 89%
21:00 +5°C° 0.1 mm 1 mps 738 mmHg 89%
22:00 +5°C° 0.1 mm 1 mps 738 mmHg 90%
23:00 +4°C° 0.1 mm 1 mps 738 mmHg 92%

20 May, Thursday

Time Temperature Precipitation Wind Pressure Humidity
00:00 +4°C° 0.1 mm 1 mps 737 mmHg 93%
01:00 +4°C° 0.1 mm 1 mps 737 mmHg 94%
02:00 +4°C° 0.1 mm 1 mps 737 mmHg 95%
03:00 +4°C° 0.1 mm 1 mps 736 mmHg 96%
04:00 +3°C° 0.2 mm 2 mps 736 mmHg 97%
05:00 +3°C° 0.2 mm 2 mps 735 mmHg 97%
06:00 +3°C° 0.2 mm 2 mps 735 mmHg 98%
07:00 +2°C° 0.2 mm 3 mps 734 mmHg 98%
08:00 +2°C° 0.2 mm 3 mps 733 mmHg 98%
09:00 +2°C° 0.2 mm 3 mps 733 mmHg 98%
10:00 +1°C° 0.2 mm 4 mps 732 mmHg 98%
11:00 +3°C° 0.2 mm 4 mps 731 mmHg 98%
12:00 +2°C° 0.2 mm 5 mps 730 mmHg 98%
13:00 +2°C° 0.6 mm 5 mps 729 mmHg 98%
14:00 +3°C° 0.6 mm 5 mps 728 mmHg 98%
15:00 +3°C° 0.6 mm 5 mps 727 mmHg 98%
16:00 +3°C° 2 mm 5 mps 726 mmHg 98%
17:00 +3°C° 2 mm 5 mps 725 mmHg 98%
18:00 +3°C° 2 mm 5 mps 724 mmHg 98%
19:00 +3°C° 1.1 mm 5 mps 724 mmHg 98%
20:00 +3°C° 1.1 mm 6 mps 723 mmHg 98%
21:00 +2°C° 1.1 mm 6 mps 723 mmHg 97%
22:00 +2°C° 1.1 mm 6 mps 723 mmHg 97%
23:00 +2°C° 1.1 mm 6 mps 723 mmHg 97%
Show more